Windom, MN

8:28 PM CDT on April 26, 2017 (GMT -0500)
Windom Municipal

Weather History for KMWM - January, 2013

Change the Weather History Date:

Friday, January 11, 2013

  Actual Average Record
Temperature  
Mean Temperature 32 °F -  
Max Temperature 37 °F 19 °F 50 °F (1990)
Min Temperature 28 °F 0 °F -26 °F (1977)
Degree Days  
Heating Degree Days 32    
Moisture  
Dew Point 35 °F    
Average Humidity 99    
Maximum Humidity 100    
Minimum Humidity 87    
Precipitation  
Precipitation 0.00 in - - ()
Sea Level Pressure  
Sea Level Pressure 29.45 in    
Wind  
Wind Speed 7 mph (South)    
Max Wind Speed 20 mph    
Max Gust Speed 24 mph    
Visibility 3 miles    
Events Fog    
Averages and records for this station are not official NWS values.
T = Trace of Precipitation, MM = Missing Value Source: NWS Daily Summary

Daily Weather History Graph

Daily Weather History Graph

Search for Another Location

Airport or City:

Trip Planner

Search our weather history database for the weather conditions in past years. The results will help you decide how hot, cold, wet, or windy it might be!

Date:

Astronomy

Jan. 11, 2013 Rise Set
Actual Time 7:53 AM CST 5:04 PM CST
Civil Twilight 7:21 AM CST 5:36 PM CST
Nautical Twilight 6:45 AM CST 6:12 PM CST
Astronomical Twilight 6:10 AM CST 6:46 PM CST
Moon 7:25 AM CST (1/11) 5:25 PM CST (1/11)
Length of Visible Light 10h 15m
Length of Day
9h 10m
Waning Crescent, 0% of the Moon is Illuminated
Jan 11
Waning Crescent
Jan 11
New
Jan 18
First Quarter
Jan 26
Full
Feb 3
Last Quarter

Hourly Weather History & Observations

Time (CST) Temp. Windchill Dew Point Humidity Pressure Visibility Wind Dir Wind Speed Gust Speed Precip Events Conditions
12:12 AM 33.8 °F 26.4 °F 33.8 °F 100% 29.62 in 1.5 mi SSE 9.2 mph - N/A   Overcast
12:33 AM 35.6 °F 29.9 °F 33.8 °F 93% 29.61 in 1.8 mi SSE 6.9 mph - N/A   Overcast
12:53 AM 35.6 °F 29.9 °F 33.8 °F 93% 29.61 in 2.0 mi South 6.9 mph - N/A   Overcast
1:12 AM 35.6 °F 30.7 °F 33.8 °F 93% 29.60 in 1.5 mi South 5.8 mph - N/A   Overcast
1:32 AM 35.6 °F 30.7 °F 35.6 °F 100% 29.59 in 2.5 mi SSE 5.8 mph - N/A   Overcast
1:53 AM 35.6 °F 30.7 °F 35.6 °F 100% 29.58 in 3.0 mi SSE 5.8 mph - N/A   Overcast
2:12 AM 35.6 °F 28.6 °F 33.8 °F 93% 29.58 in 2.0 mi SSE 9.2 mph - N/A   Overcast
2:32 AM 35.6 °F 29.9 °F 33.8 °F 93% 29.57 in 1.5 mi SSE 6.9 mph - N/A   Overcast
2:53 AM 35.6 °F 30.7 °F 33.8 °F 93% 29.58 in 1.5 mi South 5.8 mph - N/A   Overcast
3:12 AM 35.6 °F 29.2 °F 35.6 °F 100% 29.58 in 1.2 mi South 8.1 mph - N/A   Overcast
3:32 AM 35.6 °F 30.7 °F 35.6 °F 100% 29.57 in 1.5 mi South 5.8 mph - N/A   Overcast
3:53 AM 35.6 °F 30.7 °F 35.6 °F 100% 29.55 in 1.2 mi South 5.8 mph - N/A   Overcast
4:12 AM 35.6 °F 31.7 °F 35.6 °F 100% 29.55 in 1.2 mi South 4.6 mph - N/A   Overcast
4:32 AM 35.6 °F 29.2 °F 35.6 °F 100% 29.53 in 1.2 mi SSE 8.1 mph - N/A   Overcast
4:53 AM 35.6 °F 29.9 °F 35.6 °F 100% 29.52 in 1.0 mi SSE 6.9 mph - N/A   Overcast
5:12 AM 35.6 °F 30.7 °F 35.6 °F 100% 29.52 in 1.0 mi South 5.8 mph - N/A   Overcast
5:53 AM 35.6 °F 29.9 °F 35.6 °F 100% 29.49 in 1.0 mi SSE 6.9 mph - N/A   Overcast
6:12 AM 35.6 °F 29.9 °F 35.6 °F 100% 29.50 in 1.2 mi South 6.9 mph - N/A   Overcast
6:32 AM 35.6 °F 29.9 °F 35.6 °F 100% 29.49 in 1.2 mi SSE 6.9 mph - N/A   Overcast
6:53 AM 35.6 °F 30.7 °F 35.6 °F 100% 29.50 in 1.2 mi South 5.8 mph - N/A   Overcast
7:12 AM 35.6 °F 31.7 °F 35.6 °F 100% 29.50 in 1.2 mi SSE 4.6 mph - N/A   Overcast
7:32 AM 35.6 °F - 35.6 °F 100% 29.50 in 1.0 mi Calm Calm - N/A   Overcast
7:53 AM 35.6 °F 29.2 °F 35.6 °F 100% 29.49 in 1.0 mi SSE 8.1 mph - N/A   Overcast
8:12 AM 35.6 °F 29.9 °F 35.6 °F 100% 29.49 in 1.0 mi SSE 6.9 mph - N/A   Overcast
8:33 AM 35.6 °F 31.7 °F 35.6 °F 100% 29.49 in 1.0 mi South 4.6 mph - N/A   Overcast
8:53 AM 35.6 °F 30.7 °F 35.6 °F 100% 29.48 in 1.0 mi South 5.8 mph - N/A   Overcast
9:12 AM 35.6 °F 30.7 °F 35.6 °F 100% 29.49 in 1.0 mi South 5.8 mph - N/A   Overcast
9:33 AM 35.6 °F 29.2 °F 35.6 °F 100% 29.50 in 0.8 mi SSW 8.1 mph - N/A   Overcast
9:53 AM 35.6 °F 28.6 °F 35.6 °F 100% 29.50 in 0.8 mi South 9.2 mph - N/A   Overcast
10:12 AM 35.6 °F 29.2 °F 35.6 °F 100% 29.49 in 0.8 mi South 8.1 mph - N/A   Overcast
10:33 AM 35.6 °F 29.2 °F 35.6 °F 100% 29.47 in 1.0 mi South 8.1 mph - N/A   Overcast
10:53 AM 35.6 °F 29.9 °F 35.6 °F 100% 29.46 in 1.2 mi South 6.9 mph - N/A   Overcast
11:33 AM 35.6 °F 29.9 °F 35.6 °F 100% 29.44 in 4.0 mi South 6.9 mph - N/A   Overcast
11:53 AM 35.6 °F 31.7 °F 35.6 °F 100% 29.43 in 2.5 mi South 4.6 mph - N/A   Overcast
12:12 PM 37.4 °F 33.8 °F 37.4 °F 100% 29.41 in 4.0 mi SSE 4.6 mph - N/A   Overcast
12:33 PM 37.4 °F 34.9 °F 37.4 °F 100% 29.41 in 7.0 mi South 3.5 mph - N/A   Overcast
12:53 PM 37.4 °F 32.8 °F 37.4 °F 100% 29.40 in 1.8 mi South 5.8 mph - N/A   Light Drizzle
1:12 PM 37.4 °F 33.8 °F 37.4 °F 100% 29.40 in 2.5 mi South 4.6 mph - N/A   Light Drizzle
1:33 PM 37.4 °F 33.8 °F 37.4 °F 100% 29.38 in 2.0 mi SSE 4.6 mph - N/A   Drizzle
1:53 PM 37.4 °F - 37.4 °F 100% 29.38 in 2.0 mi Calm Calm - N/A   Light Drizzle
2:12 PM 37.4 °F 32.8 °F 37.4 °F 100% 29.38 in 3.0 mi SE 5.8 mph - N/A   Overcast
2:33 PM 37.4 °F 32.1 °F 37.4 °F 100% 29.37 in 2.5 mi SE 6.9 mph - N/A   Overcast
2:53 PM 37.4 °F 32.8 °F 37.4 °F 100% 29.37 in 0.8 mi SE 5.8 mph - N/A   Overcast
3:12 PM 37.4 °F 33.8 °F 37.4 °F 100% 29.37 in 0.5 mi SE 4.6 mph - N/A Fog Fog
3:33 PM 37.4 °F 33.8 °F 37.4 °F 100% 29.36 in 0.2 mi SE 4.6 mph - N/A   Light Drizzle
3:53 PM 37.4 °F 33.8 °F 37.4 °F 100% 29.37 in 0.2 mi SSE 4.6 mph - N/A   Overcast
4:12 PM 37.4 °F 32.8 °F 37.4 °F 100% 29.37 in 0.2 mi SSE 5.8 mph - N/A   Light Drizzle
4:33 PM 37.4 °F 32.1 °F 37.4 °F 100% 29.35 in 0.8 mi SSE 6.9 mph - N/A   Overcast
4:52 PM 37.4 °F 31.4 °F 37.4 °F 100% 29.35 in 0.8 mi SSE 8.1 mph - N/A   Overcast
5:12 PM 37.4 °F 32.8 °F 37.4 °F 100% 29.33 in 0.8 mi SSE 5.8 mph - N/A   Overcast
5:32 PM 37.4 °F 31.4 °F 37.4 °F 100% 29.34 in 0.8 mi SSE 8.1 mph - N/A   Overcast
5:52 PM 37.4 °F 34.9 °F 37.4 °F 100% 29.35 in 1.0 mi SSE 3.5 mph - N/A   Light Drizzle
6:13 PM 37.4 °F 33.8 °F 37.4 °F 100% 29.36 in 1.5 mi South 4.6 mph - N/A   Light Drizzle
6:32 PM 37.4 °F 33.8 °F 37.4 °F 100% 29.35 in 1.5 mi South 4.6 mph - N/A   Light Drizzle
6:53 PM 37.4 °F 31.4 °F 37.4 °F 100% 29.35 in 1.2 mi South 8.1 mph - N/A   Overcast
7:13 PM 37.4 °F 29.3 °F 37.4 °F 100% 29.36 in 1.5 mi SSW 12.7 mph - N/A   Overcast
7:32 PM 37.4 °F 29.3 °F 37.4 °F 100% 29.36 in 2.0 mi SW 12.7 mph 16.1 mph N/A   Overcast
7:53 PM 37.4 °F 30.8 °F 37.4 °F 100% 29.36 in 5.0 mi SW 9.2 mph - N/A   Overcast
8:13 PM 35.6 °F 28.6 °F 35.6 °F 100% 29.37 in 5.0 mi SW 9.2 mph - N/A   Overcast
8:32 PM 35.6 °F 29.2 °F 35.6 °F 100% 29.38 in 10.0 mi SW 8.1 mph - N/A   Overcast
8:53 PM 35.6 °F 26.6 °F 35.6 °F 100% 29.38 in 10.0 mi SW 13.8 mph 19.6 mph N/A   Overcast
9:13 PM 33.8 °F 24.8 °F 33.8 °F 100% 29.39 in 7.0 mi WSW 12.7 mph 19.6 mph N/A   Overcast
9:32 PM 33.8 °F 25.8 °F 33.8 °F 100% 29.38 in 10.0 mi WSW 10.4 mph - N/A   Overcast
9:53 PM 33.8 °F 25.8 °F 33.8 °F 100% 29.40 in 10.0 mi SW 10.4 mph - N/A   Overcast
10:12 PM 33.8 °F 23.5 °F 30.2 °F 87% 29.40 in 10.0 mi WSW 16.1 mph 20.7 mph N/A   Overcast
10:33 PM 32.0 °F 20.8 °F 30.2 °F 93% 29.41 in 10.0 mi WSW 17.3 mph 20.7 mph N/A   Overcast
10:53 PM 30.2 °F 19.3 °F 28.4 °F 93% 29.40 in 10.0 mi SW 15.0 mph 23.0 mph N/A   Overcast
11:12 PM 30.2 °F 19.8 °F 28.4 °F 93% 29.40 in 10.0 mi WSW 13.8 mph - N/A   Overcast
11:33 PM 28.4 °F 16.2 °F 28.4 °F 100% 29.43 in 10.0 mi WSW 17.3 mph - N/A   Overcast
11:53 PM 28.4 °F 15.4 °F 26.6 °F 93% 29.45 in 10.0 mi SW 19.6 mph 24.2 mph N/A   Overcast